Location: Bonnesvalyn
(49.1218°N, 3.3177°E)
Time: 10:03:07
(UTC+00:00)

Cosmos 1709 Rocket - Pass Details

Date: 09 February 2023
Orbit: 948 x 1002 km, 82.9° (Epoch: 23 March)

Event Time Altitude Azimuth Distance (km) Brightness Sun altitude
Rises 18:31:58 0° 351° (N) 3,648 7.1 -16.0°
Reaches altitude 10° 18:34:29 10° 353° (N) 2,693 6.4 -16.4°
Maximum altitude 18:40:39 79° 79° (E) 971 3.8 -17.4°
Drops below altitude 10° 18:46:44 10° 168° (SSE) 2,664 6.2 -18.4°
Sets 18:49:13 0° 169° (S) 3,606 6.9 -18.8°
